[[{"header":{"parameterUnit":"m.s-1","parameterCategory":1,"la1":30.2991,"la2":30.254,"lo1":-89.0895,"lo2":-89.0444,"dy":0.0017,"dx":0.0017,"nx":28,"ny":28,"refTime":"2023-07-18T09:00:00:Z","depth":0,"parameterNumber":2,"parameterNumberName":"U-component_of_WINDS"},"data":[0,0,0,0,0,0,0,0,0,0,0,0,0,0,0,0,0,0,0,0,0,0,0,0,0,0,0,0,0,0,0,0,0,0,0,0,0,0,0,0,0,0,0,0,0,0,0,0,0,0,0,0,0,0,0,0,0,0,1.5146,1.5146,0,1.5146,1.5146,1.5146,1.5142,1.5142,1.5142,1.5142,1.5141,1.5141,1.5141,0,0,0,0,0,0,0,0,0,0,0,0,0,1.5145,1.5145,1.5146,1.5146,1.5146,1.5146,1.5146,1.5146,1.5142,1.5142,1.5142,1.5142,1.5141,1.5141,1.5141,0,0,0,0,0,0,0,0,0,0,0,0,0,1.5145,1.5145,1.5146,1.5145,1.5145,1.5146,1.5146,1.5146,1.5142,1.5142,1.5142,1.5142,1.5141,1.5141,1.5141,1.5144,0,0,1.5142,1.5142,0,0,0,0,0,0,0,0,1.5145,1.5145,1.5145,1.5145,1.5145,1.5144,1.5145,1.5145,1.5142,1.5143,1.5142,1.5142,1.5142,1.5142,1.5142,1.5144,1.5144,1.5142,1.5142,1.5142,1.5142,0,0,0,0,0,0,0,1.5145,1.5145,1.5146,1.5145,1.5145,1.5144,1.5144,1.5145,1.5143,1.5143,1.5143,1.5143,1.5142,1.5142,1.5142,1.5144,1.5142,1.5142,1.5142,1.5142,1.5149,1.5149,0,0,0,0,0,0,1.5146,1.5145,1.5146,1.5146,1.5145,1.5144,1.5144,1.5144,1.5143,1.5143,1.5143,1.5143,1.5142,1.5142,1.5142,1.5146,1.5142,1.5142,1.5142,1.5149,1.5149,1.5149,0,0,0,0,0,0,1.5146,1.5146,1.5146,1.5146,1.5146,1.5144,1.5145,1.5144,1.5145,1.5143,1.5143,1.5143,1.5142,1.5142,1.5144,1.5146,1.5142,1.5142,1.5149,1.5149,1.5149,1.5153,0,0,0,0,0,0,1.5146,1.5146,1.5147,1.5146,1.5146,1.5148,1.5145,1.5145,1.5145,1.5144,1.5144,1.5143,1.5142,1.5144,1.5144,1.5146,1.5142,1.5148,1.5149,1.5149,1.5153,1.5154,1.5154,0,0,0,0,0,1.5146,1.5148,1.5147,1.5147,1.5147,1.5148,1.5148,1.5146,1.5145,1.5146,1.5145,1.5143,1.5146,1.5144,1.5144,1.5146,1.5148,1.5149,1.5149,1.5153,1.5153,1.5154,0,0,0,0,0,0,1.5148,1.5147,1.5146,1.5148,1.5148,1.5147,1.5149,1.5147,1.5148,1.5147,1.5145,1.5145,1.5147,1.5147,1.5145,1.5149,1.5147,1.5147,1.515,1.515,1.5151,1.5151,1.5142,0,0,0,0,0,1.5149,1.515,1.5149,1.5151,1.5151,1.515,1.515,1.5149,1.5149,1.5149,1.5148,1.5148,1.5149,1.515,1.515,1.5153,1.5153,1.5154,1.5155,1.5156,1.5156,1.5158,1.5159,1.515,1.515,1.515,0,0,1.5151,1.5151,1.5151,1.5152,1.5151,1.5153,1.515,1.5151,1.5152,1.5149,1.5151,1.5151,1.515,1.5153,1.5154,1.5152,1.5158,1.5156,1.5156,1.5156,1.5158,1.5159,1.516,1.515,1.515,1.515,0,0,1.5155,1.5154,1.5156,1.5156,1.5156,1.5156,1.5156,1.5156,1.5155,1.5157,1.5155,1.5156,1.5158,1.5158,1.5158,1.5163,1.5161,1.5163,1.5166,1.5168,1.5169,1.517,1.5172,1.5173,1.5164,1.5164,1.5164,0,1.5157,1.5159,1.5157,1.5159,1.5159,1.5157,1.5159,1.5159,1.5159,1.516,1.5158,1.516,1.516,1.5163,1.5164,1.5164,1.5165,1.5163,1.5169,1.517,1.517,1.5173,1.5173,1.5164,1.5164,1.5164,1.5164,0,1.5161,1.5163,1.5164,1.5165,1.5165,1.5167,1.5166,1.5167,1.5166,1.5166,1.5168,1.5168,1.5169,1.5169,1.5168,1.5172,1.5171,1.517,1.5167,1.5171,1.5174,1.5174,1.5164,1.5164,1.5164,1.5164,0,0,1.5166,1.5167,1.5168,1.5168,1.5168,1.5169,1.5171,1.5173,1.5174,1.5174,1.5176,1.5177,1.5176,1.5176,1.5175,1.5177,1.5182,1.5175,1.5175,1.5177,1.5187,1.5188,1.5189,1.5181,1.5181,1.5181,1.5187,0,1.5171,1.5174,1.5173,1.5177,1.5178,1.5177,1.5178,1.5179,1.5179,1.518,1.518,1.5181,1.5179,1.5179,1.5181,1.5181,1.5184,1.518,1.5183,1.5183,1.5183,1.519,1.5192,1.5198,1.5188,1.5188,1.5188,0,1.5175,1.5177,1.518,1.5181,1.5182,1.5183,1.5185,1.5186,1.5187,1.5187,1.5187,1.5186,1.5189,1.5186,1.5189,1.5187,1.5188,1.5188,1.5188,1.5189,1.5186,1.5191,1.5199,1.52,1.5189,1.5189,1.5189,0,1.518,1.5182,1.5185,1.5185,1.5186,1.5187,1.5188,1.5188,1.5189,1.5191,1.5191,1.5193,1.5194,1.5195,1.5194,1.5192,1.5198,1.5195,1.5198,1.5198,1.52,1.52,1.5208,1.52,1.52,1.5199,1.5199,0,1.5184,1.5187,1.5187,1.5188,1.5191,1.519,1.5193,1.5194,1.5194,1.5196,1.5195,1.5197,1.5196,1.5198,1.5197,1.5201,1.5201,1.5201,1.5201,1.5201,1.5201,1.5202,1.5202,1.52,1.52,1.52,1.52,0,1.5189,1.5189,1.5192,1.5193,1.5193,1.5195,1.5196,1.5198,1.5198,1.5201,1.5201,1.5201,1.5204,1.5203,1.5205,1.5205,1.5209,1.5209,1.5209,1.5209,1.5213,1.5212,1.5222,1.5224,1.5214,1.5214,1.5214,0,1.5192,1.5194,1.5195,1.5197,1.5198,1.52,1.5201,1.5201,1.5202,1.5204,1.5205,1.5207,1.5209,1.5213,1.5213,1.5215,1.5215,1.5218,1.5215,1.5216,1.5215,1.5215,1.5216,1.5219,1.5219,1.5219,1.5219,0,1.5198,1.5198,1.52,1.5202,1.5204,1.5205,1.5207,1.5208,1.5208,1.521,1.5212,1.5214,1.5216,1.5219,1.5221,1.5221,1.522,1.522,1.5221,1.5222,1.5222,1.5222,1.5211,1.522,1.522,1.522,1.522,1.522,1.5202,1.5204,1.5206,1.5208,1.5209,1.5211,1.5213,1.5214,1.5216,1.5219,1.5218,1.5221,1.5223,1.5225,1.5226,1.5229,1.5228,1.5229,1.5229,1.5229,1.523,1.5222,1.5229,1.5229,1.5229,1.5229,1.5229,0,1.5208,1.5209,1.5212,1.5214,1.5216,1.5215,1.5217,1.5219,1.5222,1.5224,1.5226,1.5229,1.5232,1.5232,1.5235,1.5237,1.5237,1.5238,1.5238,1.5238,1.5231,1.523,1.5238,1.5238,1.5238,1.5238,1.5238,1.5238,1.5211,1.5215,1.5216,1.522,1.5221,1.5225,1.5226,1.5228,1.5229,1.5233,1.5235,1.5236,1.5238,1.524,1.5243,1.5243,1.5244,1.5246,1.5246,1.5239,1.5238,1.5237,1.5237,1.5246,1.5246,1.5253,1.5253,1.5253]},{"header":{"parameterUnit":"m.s-1","parameterCategory":1,"la1":30.2991,"la2":30.254,"lo1":-89.0895,"lo2":-89.0444,"dy":0.0017,"dx":0.0017,"nx":28,"ny":28,"refTime":"2023-07-18T09:00:00:Z","depth":0,"parameterNumber":3,"parameterNumberName":"V-component_of_WINDS"},"data":[0,0,0,0,0,0,0,0,0,0,0,0,0,0,0,0,0,0,0,0,0,0,0,0,0,0,0,0,0,0,0,0,0,0,0,0,0,0,0,0,0,0,0,0,0,0,0,0,0,0,0,0,0,0,0,0,0,0,0.517,0.5169,0,0.5121,0.5121,0.512,0.5121,0.5121,0.5122,0.5123,0.5068,0.5066,0.5064,0,0,0,0,0,0,0,0,0,0,0,0,0,0.5259,0.5257,0.517,0.5169,0.5169,0.5121,0.5121,0.512,0.5121,0.5121,0.5122,0.5123,0.5069,0.5067,0.5064,0,0,0,0,0,0,0,0,0,0,0,0,0,0.5216,0.5257,0.517,0.5164,0.5162,0.5121,0.5121,0.512,0.512,0.5121,0.5122,0.5123,0.507,0.5067,0.5064,0.5025,0,0,0.5054,0.5053,0,0,0,0,0,0,0,0,0.5219,0.5213,0.5165,0.5164,0.5163,0.5128,0.5132,0.5088,0.512,0.5136,0.5123,0.5124,0.5087,0.5083,0.5071,0.5022,0.502,0.5054,0.5052,0.5051,0.505,0,0,0,0,0,0,0,0.5221,0.5215,0.5151,0.5164,0.5163,0.5161,0.5156,0.5124,0.5107,0.5135,0.5135,0.5129,0.5087,0.5074,0.507,0.5019,0.5054,0.5051,0.505,0.5048,0.4934,0.4933,0,0,0,0,0,0,0.5226,0.5217,0.5152,0.5149,0.5194,0.5159,0.5153,0.5138,0.5107,0.5103,0.5129,0.513,0.5079,0.5074,0.5068,0.5019,0.5051,0.5048,0.5046,0.4935,0.4933,0.4932,0,0,0,0,0,0,0.5228,0.5221,0.5154,0.5183,0.5175,0.5156,0.5139,0.5137,0.5124,0.5102,0.5099,0.5119,0.508,0.5072,0.5035,0.5017,0.5047,0.5044,0.4936,0.4934,0.4933,0.4922,0,0,0,0,0,0,0.5231,0.5221,0.5208,0.5183,0.5173,0.5124,0.5138,0.5135,0.5119,0.512,0.5093,0.5089,0.508,0.504,0.5032,0.5014,0.5041,0.4938,0.4936,0.4933,0.4924,0.492,0.4917,0,0,0,0,0,0.5234,0.5206,0.5207,0.5199,0.5156,0.5123,0.5117,0.5108,0.5118,0.5103,0.5089,0.509,0.5021,0.5036,0.5028,0.5008,0.4939,0.4936,0.4934,0.4925,0.4921,0.4917,0,0,0,0,0,0,0.5228,0.5203,0.5203,0.5167,0.5147,0.5123,0.5104,0.5104,0.508,0.5082,0.5071,0.5064,0.5027,0.5014,0.5031,0.4967,0.4981,0.4976,0.4978,0.4973,0.497,0.4973,0.5039,0,0,0,0,0,0.5222,0.5199,0.5178,0.5147,0.5138,0.5123,0.5108,0.5103,0.5081,0.5073,0.5056,0.5033,0.5007,0.4989,0.4963,0.4922,0.4915,0.4904,0.49,0.4898,0.4893,0.4869,0.4863,0.4923,0.4923,0.4923,0,0,0.521,0.5194,0.518,0.5146,0.513,0.5104,0.5115,0.5088,0.5069,0.5068,0.5032,0.5019,0.4993,0.4954,0.4935,0.4941,0.4875,0.4894,0.4892,0.4889,0.4866,0.486,0.4855,0.4922,0.4922,0.4922,0,0,0.5175,0.5161,0.5134,0.5118,0.5094,0.5084,0.5077,0.5053,0.5044,0.5009,0.5007,0.4983,0.4937,0.4919,0.4903,0.486,0.486,0.4852,0.4833,0.481,0.4805,0.48,0.4784,0.4778,0.4848,0.4848,0.4848,0,0.5163,0.5127,0.5119,0.5092,0.5076,0.5076,0.5047,0.5031,0.4999,0.4988,0.4995,0.4937,0.492,0.4875,0.4865,0.4853,0.4843,0.4855,0.4806,0.4802,0.4798,0.4782,0.4776,0.4847,0.4847,0.4847,0.4848,0,0.5112,0.5086,0.5067,0.5037,0.5019,0.4991,0.4978,0.4961,0.4957,0.4946,0.4908,0.4887,0.4856,0.4846,0.4841,0.48,0.4804,0.4809,0.4822,0.4791,0.4776,0.477,0.4846,0.4846,0.4847,0.4847,0,0,0.5072,0.5039,0.5032,0.5018,0.4991,0.497,0.4941,0.4912,0.4897,0.4874,0.4849,0.481,0.4814,0.4796,0.479,0.4769,0.4735,0.4776,0.4776,0.4768,0.4685,0.4681,0.4674,0.4734,0.4733,0.4732,0.4687,0,0.5033,0.4984,0.4976,0.4932,0.4907,0.4905,0.488,0.4859,0.4848,0.4823,0.481,0.4782,0.479,0.4779,0.4759,0.4743,0.4718,0.4746,0.4708,0.4707,0.4714,0.4667,0.4662,0.4621,0.4681,0.468,0.468,0,0.4982,0.496,0.4913,0.4889,0.4878,0.4856,0.4828,0.4805,0.4781,0.4774,0.4754,0.475,0.4718,0.4733,0.4687,0.4707,0.4691,0.468,0.4678,0.4674,0.4691,0.466,0.4608,0.4601,0.467,0.4671,0.4672,0,0.4956,0.4914,0.4881,0.4869,0.484,0.4824,0.4811,0.4788,0.4771,0.4746,0.4734,0.4706,0.4689,0.4666,0.4654,0.4666,0.4608,0.4623,0.46,0.46,0.4587,0.4588,0.4531,0.4578,0.4579,0.4579,0.4579,0,0.4914,0.4885,0.4869,0.4848,0.4815,0.4806,0.4773,0.4759,0.4739,0.4714,0.4711,0.4687,0.4672,0.4646,0.4635,0.4598,0.4591,0.4583,0.458,0.4583,0.4584,0.4572,0.4574,0.4577,0.4577,0.4578,0.4578,0,0.4879,0.4868,0.4831,0.4806,0.4799,0.4776,0.4754,0.4733,0.4721,0.469,0.4681,0.4662,0.4631,0.4616,0.4577,0.457,0.4528,0.4527,0.4536,0.4535,0.4513,0.4515,0.4445,0.4435,0.449,0.4489,0.4489,0,0.4853,0.4831,0.4804,0.4788,0.4775,0.4749,0.4731,0.472,0.4702,0.4672,0.4654,0.4623,0.4598,0.4547,0.4529,0.4498,0.4497,0.4474,0.4492,0.4495,0.4495,0.4496,0.4493,0.4471,0.4471,0.447,0.447,0,0.4807,0.4802,0.4778,0.4751,0.473,0.4708,0.4687,0.4673,0.4658,0.4638,0.4606,0.4587,0.4547,0.4515,0.4484,0.4468,0.4465,0.4464,0.4457,0.4459,0.4465,0.446,0.4527,0.4466,0.4466,0.4467,0.4467,0.4467,0.4774,0.4754,0.4732,0.4705,0.4688,0.4667,0.4646,0.4632,0.4606,0.4574,0.4568,0.4534,0.4509,0.4467,0.445,0.4422,0.4427,0.4417,0.4414,0.4412,0.441,0.447,0.4416,0.4416,0.4416,0.4416,0.4416,0,0.4727,0.4713,0.4688,0.4658,0.4636,0.4638,0.4613,0.4594,0.4565,0.4543,0.4518,0.4481,0.445,0.4429,0.4397,0.4378,0.4376,0.437,0.4371,0.4367,0.4408,0.4417,0.4372,0.4372,0.4372,0.4372,0.4372,0.4372,0.47,0.4666,0.4658,0.4614,0.4599,0.4567,0.4553,0.4534,0.4516,0.4475,0.445,0.4437,0.4414,0.438,0.4351,0.4346,0.4334,0.4327,0.4322,0.436,0.4364,0.4369,0.4377,0.4325,0.4325,0.4283,0.4283,0.4282]}]]